Location: Paddlesworth
(51.1000°N, 1.1333°E)
Time: 02:39:02
(UTC+00:00)

Cosmos 2112 Rocket - Pass Details

Date: 11 May 2021
Orbit: 755 x 788 km, 74.1° (Epoch: 14 June)

Event Time Altitude Azimuth Distance (km) Brightness Sun altitude
Rises 21:37:15 0° 336° (NNW) 3,286 9.1 -14.8°
Reaches altitude 10° 21:39:41 10° 340° (NNW) 2,357 7.8 -15.0°
Maximum altitude 21:45:01 62° 62° (ENE) 884 4.3 -15.4°
Enters shadow 21:48:11 24° 136° (SE) 1,577 5.0 -15.7°
